This is the latest recevied weather packets stored in our database for station/object N5GMJ. If no packets are shown the sender has not sent any weather packets the latest 10 day(s).
| Time | Temp. | Humidity | Pressure | Rain* | Wind** | Luminosity | Snow |
|---|---|---|---|---|---|---|---|
| 1777342833 | 27.22° C | 80% | 1010.3 hPa | 0 mm | - | - | - |
| 1777342530 | 27.22° C | 80% | 1010.2 hPa | 0 mm | - | - | - |
| 1777342227 | 27.22° C | 79% | 1010.2 hPa | 0 mm | - | - | - |
| 1777341923 | 27.22° C | 79% | 1010.2 hPa | 0 mm | - | - | - |
| 1777341620 | 27.22° C | 78% | 1009.9 hPa | 0 mm | - | - | - |
| 1777341315 | 27.22° C | 77% | 1010 hPa | 0 mm | - | - | - |
| 1777341013 | 27.22° C | 76% | 1009.8 hPa | 0 mm | - | - | - |
| 1777340710 | 27.22° C | 75% | 1009.8 hPa | 0 mm | - | - | - |
| 1777340409 | 26.67° C | 73% | 1009.7 hPa | 0 mm | - | - | - |
| 1777340105 | 26.67° C | 72% | 1009.4 hPa | 0 mm | - | - | - |
| 1777339802 | 26.11° C | 71% | 1009.2 hPa | 0 mm | - | - | - |
| 1777339500 | 26.11° C | 73% | 1009.2 hPa | 0 mm | - | - | - |
| 1777339197 | 26.67° C | 71% | 1009.1 hPa | 0 mm | - | - | - |
| 1777338895 | 26.67° C | 75% | 1009 hPa | 0 mm | - | - | - |
| 1777338591 | 26.67° C | 71% | 1009.2 hPa | 0 mm | - | - | - |
| 1777338289 | 27.22° C | 73% | 1009 hPa | 0 mm | - | - | - |
| 1777337984 | 27.22° C | 69% | 1009.1 hPa | 0 mm | - | - | - |
| 1777337682 | 27.78° C | 67% | 1008.9 hPa | 0 mm | - | - | - |
| 1777337379 | 28.89° C | 63% | 1008.9 hPa | 0 mm | - | - | - |
| 1777337076 | 28.89° C | 65% | 1009 hPa | 0 mm | - | - | - |
| 1777336774 | 29.44° C | 63% | 1008.8 hPa | 0 mm | - | - | - |
| 1777336473 | 29.44° C | 54% | 1009 hPa | 0 mm | - | - | - |
| 1777336170 | 31.67° C | 52% | 1008.8 hPa | 0 mm | - | - | - |
| 1777335867 | 32.78° C | 48% | 1008.9 hPa | 0 mm | - | - | - |
| 1777335564 | 31.67° C | 49% | 1008.9 hPa | 0 mm | - | - | - |
* Rain latest hour (hover to see other rain measurements)
** Current wind speed in m/s (hover to see current wind gust speed)